User: anonymous
Location: Caltech
(34.1382°N, 118.1253°W)
Time: 21:23:35
(UTC-07:00)
Language:

SL-16 R/B - Orbit

View from above orbital plane
View from above orbital plane
View from above satellite
View from above satellite

Ground track
Ground track

The orbit data is extracted from the following two-line orbital elements,

1 31793U 07029B   14291.42368723 -.00000270  00000-0 -11633-3 0  1027
2 31793 070.9763 272.3228 0002621 273.1576 249.7518 14.14292720377178
Epoch (UTC): 18 October 2014 10:10:06
Eccentricity: 0.0002621
inclination: 70.9763°
perigee height: 843 km
apogee height: 846 km
right ascension of ascending node: 272.3228°
argument of perigee: 273.1576°
revolutions per day: 14.14292720
mean anomaly at epoch: 249.7518°
orbit number at epoch: 37717

The dashed part of the orbit path shows where the satellite is in the earth's shadow,  

DLR